Location: L�Adrech
(44.2500°N, 6.4167°E)
Time: 08:24:54
(UTC+00:00)

Cosmos 2227 Rocket - Pass Details

Date: 07 June 2020
Orbit: 838 x 846 km, 71.0° (Epoch: 08 July)

Event Time Altitude Azimuth Distance (km) Brightness Sun altitude
Rises 00:01:19 0° 329° (NNW) 3,417 6.2 -22.7°
Reaches altitude 10° 00:03:52 10° 323° (NW) 2,477 5.2 -22.6°
Maximum altitude 00:09:15 45° 253° (WSW) 1,136 2.6 -22.5°
Enters shadow 00:10:04 42° 228° (SW) 1,185 2.6 -22.4°
